RH
4 4 4 7 12 14 14 14 14 15 14 16 14 14 15 11 4 4 3 3 4 4 4 5 6 6 6 6 7 8 8 8 7 7 7 8 10 11 11 11 11 12 15
7 9 11 10 8 8 9 10 13 14 16 17 21 17 10 5 6 5 5 4 4 5 5 6 6 7 7 7 8 8 8 9 10 11 12 11 11 11 10 10 10 12 22
13 10 8 8 8 9 9 10 13 16 23 23 16 8 7 7 7 7 7 6 6 6 6 6 6 7 7 8 9 10 10 11 12 12 11 10 9 8 9 9 9 9 11
8 8 10 10 11 13 16 18 24 25 19 11 10 10 10 10 9 9 8 8 8 8 8 8 7 7 8 8 9 10 11 11 11 11 11 10 9 9 8 9 10 10 11
4 5 7 9 12 18 23 19 13 12 14 16 16 17 18 16 11 9 9 10 10 10 10 10 10 9 9 9 9 10 10 9 10 10 10 11 11 10 10 10 10 10 10
5 6 7 8 10 11 10 11 11 16 19 20 22 23 26 25 17 12 11 12 12 12 13 14 13 12 12 12 11 10 10 10 10 10 10 11 11 12 13 12 11 11 9
10 11 11 11 12 12 13 14 16 18 20 21 23 27 29 34 24 17 18 20 21 20 22 21 19 17 16 15 14 13 14 14 14 14 13 13 14 15 14 12 12 12 12
11 14 15 17 18 17 15 14 15 16 19 21 24 26 28 34 31 22 23 22 22 26 26 26 26 25 23 22 19 18 17 17 18 18 18 18 18 16 14 14 15 16 17
13 21 34 30 39 42 40 19 14 17 19 18 18 18 22 27 29 24 22 18 20 20 27 27 25 26 28 29 28 26 23 23 23 24 24 24 20 16 15 18 20 21 22
20 26 28 20 25 40 34 35 18 15 18 16 14 14 17 22 25 24 23 21 24 28 31 31 29 32 36 39 39 37 33 29 28 29 30 28 19 15 19 23 26 26 27
21 20 22 21 25 41 35 28 28 18 16 18 19 17 17 20 21 22 24 28 28 31 34 32 29 33 38 46 49 47 45 39 39 38 38 32 19 17 25 29 29 30 30
27 24 26 26 37 43 40 38 24 19 19 19 19 20 22 24 26 28 28 27 26 30 32 31 32 39 47 54 67 68 65 54 46 44 44 37 18 21 33 34 31 30 30
31 29 38 42 43 43 41 37 37 38 35 31 30 29 31 31 29 28 27 28 29 30 34 36 33 41 49 58 75 76 72 66 53 50 50 46 19 24 39 34 31 31 29
33 44 40 38 40 41 40 37 38 37 37 37 39 39 39 39 39 38 38 38 37 38 38 40 44 38 42 54 76 89 86 82 67 62 61 57 23 27 39 32 32 30 30
42 41 36 34 35 36 39 41 40 40 40 39 39 41 42 42 42 42 43 43 42 42 40 39 43 49 43 49 82 96 98 96 79 69 69 66 33 31 36 32 30 30 30
43 37 36 38 38 37 36 34 32 32 32 33 33 34 34 35 36 36 35 34 35 37 38 40 43 49 52 46 58 95 96 99 92 77 74 73 40 33 35 33 30 38 56
38 37 38 37 32 29 27 26 25 25 26 26 26 26 26 25 25 25 25 24 25 26 27 29 35 45 54 57 57 71 82 98 97 85 78 79 44 33 34 30 34 64 65
40 39 40 39 37 35 36 36 36 34 33 33 34 34 32 32 33 35 38 39 34 29 27 27 29 32 41 53 60 62 99 90 99 95 88 86 47 33 34 32 54 76 61
40 45 47 44 42 40 39 38 36 35 34 33 32 32 32 31 29 25 22 21 29 42 48 47 47 39 37 43 51 62 63 100 95 96 93 92 52 32 32 40 66 81 80
46 52 50 49 49 49 46 41 33 26 19 13 8 10 12 14 18 21 30 38 39 31 23 41 56 56 47 43 51 58 70 100 100 96 94 95 62 45 36 48 75 85 91
55 56 56 58 61 62 61 59 54 50 35 31 39 32 14 8 7 5 5 6 12 25 26 22 55 60 58 49 51 62 68 80 98 96 95 95 79 47 48 66 82 95 89
56 57 58 61 60 59 61 60 43 15 8 6 4 3 4 6 4 3 3 3 5 6 9 13 34 58 64 55 53 65 94 97 95 96 95 97 94 81 65 88 96 96 92
58 59 59 59 60 62 55 24 12 10 6 3 2 2 2 2 2 2 2 2 4 10 10 12 19 51 70 63 57 62 95 91 96 96 96 96 96 87 74 97 96 95 89
65 65 66 62 54 38 24 18 8 4 3 2 2 2 2 2 2 3 4 4 6 9 16 20 39 72 82 78 64 94 96 96 97 96 96 98 96 96 97 96 96 95 69
71 68 63 56 48 34 14 5 4 3 2 2 2 3 5 7 6 5 5 6 7 14 24 45 72 78 97 99 94 97 100 98 96 94 95 96 96 96 97 96 95 89 38
71 66 55 30 11 7 5 4 4 4 5 5 9 12 11 8 7 9 7 8 9 12 31 61 85 88 96 97 98 98 97 96 96 92 95 96 95 96 96 96 95 62 18
Wind_Speed
19 20 21 21 22 23 25 26 25 25 23 22 23 25 27 28 27 25 24 22 22 22 23 23 23 23 22 21 21 21 22 24 22 20 19 22 21 23 26 26 27 27 28
20 21 20 20 21 22 22 23 23 22 20 21 22 24 26 28 27 26 24 23 23 23 22 22 22 22 22 22 22 22 22 25 26 25 23 20 19 22 26 27 26 26 25
19 19 17 17 19 20 19 18 17 18 19 21 23 25 26 28 27 26 26 24 23 22 22 22 23 23 24 24 24 24 24 24 27 29 29 29 25 19 21 27 28 26 27
14 13 14 15 17 17 16 16 17 19 21 23 25 26 27 27 26 25 24 23 22 23 24 24 24 25 26 26 26 25 25 25 26 28 30 32 33 33 24 22 26 27 25
15 14 14 14 16 16 17 18 18 20 24 26 27 28 28 28 26 25 23 22 23 23 24 24 24 24 25 26 26 27 26 26 26 27 28 29 33 33 34 28 22 25 25
10 13 14 15 16 16 18 21 24 26 27 28 28 27 27 27 25 23 21 21 22 22 22 24 25 25 26 27 28 28 29 29 28 28 29 29 29 30 30 29 27 24 25
13 15 15 16 18 21 24 26 28 27 28 27 26 26 25 25 24 21 20 20 22 23 23 24 25 26 26 27 28 28 29 29 29 29 29 29 29 29 29 28 26 26 25
17 16 15 17 20 22 23 24 25 25 27 27 26 27 24 23 22 21 20 21 23 24 24 24 25 26 27 28 28 28 28 29 29 30 29 28 28 28 28 27 26 24 25
19 12 11 16 20 21 21 22 22 23 23 24 24 23 23 23 22 22 21 23 26 28 28 28 28 28 28 28 29 29 28 29 29 29 29 28 27 27 27 27 28 28 27
19 15 15 19 22 24 24 23 21 19 20 20 21 20 20 21 22 22 23 27 30 31 31 31 30 29 29 29 29 29 30 30 31 30 29 28 28 27 27 28 29 31 29
26 20 21 22 24 25 24 23 23 21 19 20 20 19 18 19 20 22 26 30 31 32 30 30 30 30 30 30 31 31 31 31 31 30 29 29 28 27 27 28 29 29 30
28 22 21 22 24 25 24 22 22 21 21 19 19 19 19 21 23 26 27 28 28 29 30 29 30 30 31 32 31 31 32 31 31 31 30 29 28 29 28 29 29 28 30
29 20 21 24 25 24 25 25 23 22 23 23 22 23 24 27 28 30 30 29 29 30 30 31 31 32 33 32 32 33 32 32 32 31 31 31 30 29 29 29 28 28 29
16 20 24 26 26 26 27 27 24 24 24 24 25 25 27 30 31 32 32 33 33 33 32 33 33 33 34 33 33 33 33 32 31 31 31 30 30 30 30 29 28 28 29
21 27 27 25 24 23 23 23 24 24 24 25 27 29 31 33 34 34 35 36 36 36 34 34 33 33 34 33 34 34 34 33 31 30 30 31 31 30 30 29 28 28 29
25 25 24 23 22 21 21 22 23 25 26 27 29 30 32 33 34 35 36 36 36 36 36 34 34 34 34 33 36 36 35 37 33 30 29 28 30 30 29 28 26 26 33
21 21 22 22 21 20 20 21 22 23 25 26 27 28 30 31 32 33 34 34 35 35 35 35 35 35 34 34 36 37 36 35 36 30 30 29 28 30 29 28 27 28 34
19 18 18 19 20 21 21 22 23 24 25 26 28 29 31 32 33 34 35 35 36 36 36 36 36 37 35 35 38 38 39 35 36 30 30 29 27 29 30 29 29 32 32
17 18 18 18 20 22 23 25 27 31 33 34 34 33 34 36 36 36 37 38 39 38 38 40 38 37 37 36 38 40 37 36 33 34 29 30 27 27 30 31 32 34 31
18 18 19 21 22 24 27 30 32 35 38 39 39 38 39 41 42 43 44 45 45 43 40 39 40 38 37 37 38 37 34 31 36 33 28 28 27 27 30 32 33 37 31
19 20 21 24 27 31 36 39 41 43 45 47 47 46 45 47 47 48 46 46 47 47 44 40 39 38 37 34 35 32 31 30 33 32 29 28 28 28 30 33 36 35 31
23 25 28 31 34 38 43 46 48 49 52 55 55 53 52 52 53 53 52 49 48 48 45 41 38 37 36 35 32 31 30 30 30 31 31 27 31 30 31 35 36 33 31
25 29 34 38 40 43 46 49 51 56 60 60 59 57 56 53 52 52 53 53 51 48 45 39 35 33 33 32 30 31 28 30 28 30 28 30 32 31 33 35 32 30 24
30 35 40 44 47 46 49 55 59 60 61 61 61 61 59 57 54 51 49 52 52 48 42 37 31 30 30 28 25 24 25 24 28 28 29 31 31 32 31 28 28 25 23
35 40 45 49 51 55 58 58 58 59 61 61 60 60 58 56 53 49 48 49 47 43 40 33 31 29 26 23 25 25 26 27 28 29 28 28 29 26 26 26 25 22 24
40 45 49 52 54 56 57 56 56 56 57 59 57 54 53 51 49 47 46 40 41 38 35 33 30 28 25 25 24 26 27 27 27 27 24 25 24 23 23 23 22 22 24
Wind_Direction
274 284 290 298 306 303 301 300 296 294 294 297 303 306 312 313 313 310 307 304 302 303 303 303 306 306 306 306 306 305 305 306 306 306 307 306 306 303 297 295 291 294 298
282 289 300 308 306 308 308 305 299 297 300 304 309 313 312 309 309 308 305 304 303 303 303 304 303 303 305 306 307 305 305 306 307 307 304 298 298 302 300 297 298 298 300
288 297 302 306 308 312 309 308 302 300 304 307 310 310 312 312 311 307 304 304 302 301 299 299 301 303 304 304 305 306 305 304 306 309 310 308 302 297 298 300 301 301 303
289 296 299 301 303 304 305 302 300 302 306 308 310 312 312 313 313 307 304 302 303 303 304 307 308 306 305 303 303 304 304 305 304 307 310 311 310 312 307 303 308 308 307
300 306 304 301 298 298 298 297 302 309 310 308 308 310 313 316 317 314 309 307 305 304 305 304 302 300 301 302 303 304 305 304 304 302 303 306 307 308 310 310 307 303 304
328 322 315 306 298 294 296 300 302 303 302 303 305 307 308 310 314 313 311 310 309 307 307 308 306 306 307 307 307 307 307 307 305 304 303 302 301 302 302 303 305 306 303
335 322 310 302 299 300 297 297 298 299 298 300 303 302 303 306 313 315 317 316 312 309 307 308 308 308 307 305 303 304 306 306 306 305 303 302 300 299 299 302 305 308 306
332 316 309 313 310 303 301 300 302 301 296 296 296 295 295 297 303 308 309 314 317 316 310 305 304 304 304 305 305 306 306 305 305 304 302 300 298 297 297 299 302 304 305
337 324 332 332 330 324 316 312 306 301 300 301 301 297 291 293 297 301 303 306 312 312 311 307 304 303 304 305 306 305 304 303 302 302 299 297 295 294 295 298 302 303 303
330 300 294 313 330 332 325 316 313 307 303 298 298 299 292 290 295 299 298 302 306 308 306 303 301 301 302 304 304 304 303 302 303 303 300 297 294 293 294 298 302 303 303
324 303 288 307 324 331 327 320 313 309 306 303 303 301 297 295 296 299 301 304 306 304 303 300 299 299 299 299 301 303 304 304 304 304 301 296 292 289 291 295 298 300 299
319 307 314 317 321 322 323 322 315 309 309 309 309 307 304 301 301 301 303 305 304 301 299 296 294 293 292 293 298 301 301 302 302 302 300 294 290 289 291 296 298 297 299
308 314 314 312 313 314 317 320 315 312 310 310 309 307 305 303 304 304 305 305 304 302 299 296 293 291 291 291 292 296 300 301 302 303 301 297 292 289 293 296 296 296 297
304 317 319 314 311 309 310 311 311 311 310 309 306 304 301 301 303 304 304 303 301 303 301 297 294 292 290 290 289 292 295 298 299 302 302 297 292 289 294 296 296 297 300
309 316 318 319 316 314 314 312 309 307 306 305 306 306 305 305 304 303 301 300 301 301 298 296 295 292 288 287 284 286 290 294 294 298 302 300 295 292 294 294 295 297 302
311 314 317 320 321 319 315 313 313 312 310 308 307 305 302 302 303 303 303 304 304 303 300 297 293 291 289 286 282 281 284 285 286 291 294 294 292 287 288 289 289 297 303
312 317 317 316 318 322 326 325 324 322 321 318 315 313 312 312 311 309 308 306 304 302 302 300 297 292 288 285 281 279 280 284 281 286 288 289 288 286 287 287 289 298 299
311 307 305 308 314 319 322 322 319 317 316 315 315 313 311 310 309 308 309 309 308 307 304 302 298 293 291 286 283 278 271 276 281 278 283 286 286 287 286 285 293 300 298
296 299 306 312 316 318 319 318 317 314 311 308 306 304 304 304 305 304 304 304 303 303 303 301 299 297 292 286 281 276 281 269 280 273 278 281 283 283 281 281 289 300 295
292 297 301 305 308 310 312 313 312 312 310 310 310 308 306 304 302 301 300 300 301 301 301 301 300 295 294 287 281 279 279 267 275 271 278 279 280 281 281 283 291 299 289
284 287 291 299 306 309 310 312 312 312 311 310 307 306 305 304 304 303 301 301 300 299 300 299 300 300 294 289 283 275 276 264 270 269 279 275 281 278 277 280 287 292 286
284 292 297 300 303 307 310 312 314 313 312 312 310 307 304 299 297 295 294 291 290 291 294 292 293 298 296 290 282 273 270 272 266 275 275 279 282 277 274 280 288 286 285
286 292 297 299 303 306 308 309 311 311 310 311 310 308 306 302 297 293 290 287 283 282 285 285 288 294 294 287 280 275 265 272 270 278 283 284 283 281 276 285 283 283 282
294 299 302 302 303 307 308 310 313 312 311 311 310 307 304 301 298 293 289 286 283 282 282 282 282 285 286 286 274 269 269 275 277 283 283 283 282 285 286 281 281 282 284
303 302 304 305 309 311 312 316 316 313 312 310 308 306 305 305 302 297 293 289 287 284 279 277 278 283 282 279 267 265 272 274 278 279 282 285 286 282 279 277 279 282 285
305 307 309 310 313 316 317 319 316 313 311 309 310 312 312 310 305 301 297 291 289 282 274 271 273 279 276 270 268 266 268 273 276 276 280 286 288 281 279 277 278 281 285